Location: Byszew
(52.1813°N, 19.2693°E)
Time: 13:17:44
(UTC+00:00)

Resurs 1-3 - Pass Details

Date: 03 March 2021
Orbit: 629 x 633 km, 97.9° (Epoch: 13 April)

Event Time Altitude Azimuth Distance (km) Brightness Sun altitude
Exits shadow 18:01:25 26° 107° (ESE) 1,247 4.5 -15.3°
Maximum altitude 18:03:03 35° 66° (ENE) 1,023 4.2 -15.6°
Drops below altitude 10° 18:07:05 10° 0° (N) 2,030 6.3 -16.2°
Sets 18:09:25 0° 352° (N) 2,943 7.3 -16.5°
